Terminal Aerodrome Forecast
Issued by NWS Louisville, KY

Home | Current Version | Previous Version | Text Only | Print | Product List | Glossary On
Versions: 1 2 3 4 5 6 7 8 9 10 11 12 13 14 15 16 17 18 19 20 21 22 23 24 25 26
000
FTUS43 KLMK 221700
TAFSDF
TAF
KSDF 221722Z 2218/2324 14008KT P6SM BKN030
     FM222200 14008KT P6SM VCSH BKN015
     FM230300 16012KT 4SM -SHRA BR BKN008 WS020/19040KT
     FM231300 21008KT P6SM VCSH BKN020=

USA.gov is the U.S. government's official web portal to all federal, state and local government web resources and services.